Wind_Speed
16 16 16 16 16 16 15 14 13 13 12 12 11 10 9 8 7 7 7 7 7 7 7 7 8 8 8 8 8 8 8 8 8 8 9 10 10 10 12 13 14 14 15
18 18 18 18 17 17 17 17 16 15 14 14 13 12 11 10 9 9 9 9 9 9 8 8 9 9 9 9 9 9 9 9 9 10 10 10 11 11 12 13 15 16 16
20 19 19 19 19 19 18 18 18 17 16 16 16 15 14 13 12 11 11 11 10 10 10 9 10 10 10 10 10 10 10 11 11 11 11 12 12 13 13 14 15 16 17
22 22 21 20 21 20 20 20 19 19 19 18 17 17 16 14 14 14 13 13 13 12 12 11 11 11 11 11 11 11 12 12 13 13 13 13 14 15 15 15 16 17 18
25 23 23 23 23 22 21 21 21 21 20 20 19 18 18 17 16 16 16 15 15 14 14 13 13 12 12 12 12 12 12 13 14 14 14 15 15 16 17 17 17 18 19
27 26 26 26 25 25 23 22 23 23 22 21 20 20 20 20 19 18 18 18 17 16 16 15 14 14 14 13 13 13 13 13 14 15 16 16 17 17 18 18 19 20 20
29 28 27 27 27 26 25 24 24 24 23 23 23 22 22 21 21 20 20 20 20 18 18 17 16 15 15 15 15 14 15 15 15 16 17 17 18 18 19 20 20 21 22
32 31 30 29 29 28 27 26 25 25 24 25 25 24 23 23 23 23 22 22 22 21 20 19 18 17 16 16 16 16 16 16 17 17 18 18 19 20 21 21 22 22 23
33 32 32 31 28 27 27 27 27 26 26 26 26 25 25 25 24 24 24 24 24 23 22 21 20 20 18 18 18 17 17 17 18 19 19 20 20 21 22 23 23 24 24
35 33 31 31 31 30 29 28 30 29 28 28 27 27 27 26 26 25 26 26 26 26 25 24 23 22 20 19 19 19 19 19 19 20 21 21 21 22 23 23 24 25 25
35 35 34 33 31 31 30 30 29 29 30 29 28 28 28 28 28 28 28 29 29 28 27 26 25 24 23 22 21 21 20 20 20 21 21 22 22 22 23 24 25 26 26
34 34 33 33 32 30 30 30 29 29 29 30 29 29 29 29 29 30 29 30 30 30 29 28 27 26 25 24 23 22 21 21 21 21 21 22 22 23 23 24 25 26 27
32 32 32 31 31 30 29 29 28 29 28 28 28 29 29 30 30 30 30 31 31 31 31 30 29 28 26 25 24 24 22 22 22 22 22 22 22 22 23 24 25 26 27
30 30 30 29 30 29 29 29 29 29 29 29 28 28 29 29 30 31 30 30 32 32 32 31 30 29 28 26 26 25 24 23 23 22 22 22 22 23 24 24 25 27 28
27 27 27 27 27 27 28 28 28 28 29 30 30 30 29 29 29 29 29 29 30 30 31 30 30 29 29 27 26 25 24 23 23 22 22 22 23 23 24 26 26 27 28
23 23 24 25 25 26 27 27 27 27 28 28 29 29 29 29 29 28 27 28 28 28 28 28 27 28 27 26 24 24 24 23 23 23 24 24 24 24 25 25 26 26 27
18 20 21 22 23 24 24 25 26 26 26 26 26 27 27 28 28 28 27 27 27 27 26 26 26 26 25 25 24 24 24 24 24 24 24 25 25 25 25 26 26 27 27
14 15 17 19 20 21 21 22 23 23 24 24 23 23 24 25 26 26 26 26 26 25 25 24 23 24 24 24 24 24 24 24 24 25 25 26 26 25 25 26 26 27 27
8 10 11 13 14 16 17 18 18 19 20 21 21 21 21 21 22 22 22 23 23 23 22 22 22 23 23 23 23 24 24 25 25 26 26 26 26 26 26 26 26 26 27
5 6 7 9 10 11 12 13 14 16 17 18 18 17 18 18 19 20 20 19 20 20 20 20 21 21 21 22 23 23 24 24 25 25 26 26 26 26 26 26 26 26 26
4 4 5 6 6 8 9 10 11 12 13 14 14 15 15 16 17 17 17 18 18 19 19 20 20 20 21 21 22 22 22 23 24 24 25 26 27 27 27 27 26 27 26
8 6 6 6 6 7 8 8 9 10 11 11 12 12 13 13 14 15 15 16 17 18 18 18 19 19 19 20 21 21 22 22 23 24 24 25 25 26 26 26 26 26 26
11 9 8 7 7 6 7 7 8 9 10 11 11 11 12 12 13 14 15 15 16 16 17 17 18 18 19 19 20 20 21 22 22 23 23 23 23 24 25 25 24 24 25
12 11 10 10 9 7 7 7 7 8 8 9 11 11 12 12 13 14 14 15 15 15 15 16 17 17 17 18 18 19 19 19 20 20 21 21 21 21 22 22 22 23 23
13 13 12 11 10 8 7 7 6 7 7 8 9 10 11 12 12 13 13 14 14 13 14 15 15 16 16 16 17 17 17 17 17 17 17 18 18 18 19 19 19 20 20
15 14 13 12 11 9 7 6 6 6 6 7 7 7 9 10 10 11 11 11 12 12 12 13 14 14 14 14 14 14 15 15 15 15 15 15 16 16 16 16 17 17 18
Wind_Direction
275 276 277 277 277 277 275 273 273 274 273 272 272 274 276 276 273 271 272 271 272 272 273 275 274 273 272 273 271 267 265 265 263 261 257 251 251 252 249 246 245 243 240
271 272 273 274 274 274 274 272 271 270 270 269 267 267 268 270 271 268 266 266 267 269 269 272 271 271 271 271 271 269 268 267 265 263 263 259 256 255 253 252 251 249 246
269 270 270 271 273 272 272 272 270 267 267 266 263 262 263 264 266 268 267 266 265 265 265 267 269 270 271 271 271 271 270 270 269 266 265 262 260 258 257 257 256 255 252
270 268 267 270 272 272 272 270 267 264 264 265 263 262 262 262 262 265 266 265 264 263 263 264 266 266 268 269 272 274 274 273 272 270 270 269 266 265 262 261 260 258 257
268 269 269 269 270 271 271 268 264 264 263 262 261 261 261 261 261 264 263 262 262 261 261 261 263 263 265 267 270 273 276 276 274 273 273 273 272 270 267 264 262 261 259
267 267 270 268 268 267 267 264 263 264 263 261 259 259 260 260 261 261 260 259 259 258 258 259 260 262 263 265 268 270 272 274 274 273 273 274 274 273 272 269 267 265 263
264 266 269 267 267 265 264 264 262 262 263 261 258 257 258 259 260 260 258 257 256 257 258 258 260 261 262 264 266 268 270 272 273 273 273 273 273 273 273 271 270 269 267
263 268 267 266 266 263 263 263 259 260 262 262 259 258 258 258 259 259 257 255 254 255 257 259 260 262 263 265 267 269 270 271 272 273 273 273 273 273 272 272 271 270 269
261 264 265 264 263 263 262 260 259 257 259 261 259 257 259 259 259 259 257 255 254 254 256 260 262 263 264 267 269 270 272 272 272 272 272 272 273 273 273 272 272 271 270
259 261 263 264 263 262 262 259 255 256 256 257 256 257 256 258 260 259 256 255 255 256 257 259 262 263 264 267 268 269 271 272 272 272 272 272 272 273 274 273 272 271 271
256 259 261 262 262 261 260 259 257 256 256 255 256 255 255 257 259 259 256 254 254 255 256 258 260 262 264 266 268 268 270 272 273 273 273 274 274 274 274 274 273 272 271
256 259 261 262 262 263 261 259 259 259 257 255 255 254 254 256 258 258 257 254 252 253 254 256 258 261 263 265 266 267 269 271 273 274 274 274 275 275 275 275 275 273 272
256 257 260 261 261 262 262 261 262 261 260 259 257 253 254 256 257 259 257 253 251 251 251 253 256 260 261 262 264 266 267 269 271 273 275 275 275 276 276 276 276 275 274
256 256 258 260 260 260 260 260 261 262 259 258 256 255 256 256 257 258 256 253 251 249 249 250 252 256 257 259 261 263 266 268 270 272 275 275 275 275 276 277 277 276 275
255 255 257 259 260 260 259 258 259 260 257 256 256 256 256 255 256 254 252 252 250 248 246 247 251 252 253 255 258 261 263 266 269 272 274 275 275 276 278 276 276 276 275
257 256 257 257 257 257 256 257 258 257 256 256 255 253 254 255 252 252 252 250 247 246 246 247 247 249 249 251 255 259 263 266 269 271 273 275 276 277 278 277 276 276 276
259 257 257 257 258 258 259 258 257 258 256 256 254 253 254 253 252 250 248 246 245 244 245 246 246 248 247 250 255 258 261 265 268 270 272 275 277 278 280 279 278 276 276
260 260 259 257 257 259 260 258 256 255 254 255 255 253 252 252 249 248 247 246 244 244 244 244 246 247 248 251 255 259 262 265 267 269 271 275 277 278 280 279 279 278 276
265 263 263 261 262 262 261 257 256 253 251 251 252 250 249 249 248 246 246 244 244 244 244 245 248 248 249 252 256 259 263 265 267 270 271 274 276 277 279 279 280 279 278
293 284 277 275 268 262 260 255 253 250 247 248 248 249 251 250 249 246 245 245 246 247 249 250 250 249 250 253 257 260 263 266 269 270 272 273 275 277 279 279 280 279 279
337 316 298 289 285 284 278 269 259 251 247 246 246 248 250 250 251 250 250 251 250 249 248 248 248 251 253 256 259 261 264 267 269 270 272 273 275 277 278 278 280 281 280
14 0 346 328 314 304 292 285 277 264 258 253 252 252 251 251 252 251 250 251 250 248 247 248 250 253 255 257 260 262 264 267 269 270 272 274 276 278 278 278 280 281 279
14 5 356 348 334 317 300 293 286 276 266 259 257 254 254 252 252 252 253 253 251 250 250 250 252 254 256 259 263 265 267 269 269 270 273 275 277 278 278 278 280 282 280
11 5 358 350 338 323 307 293 283 274 265 259 257 257 256 253 254 254 253 253 252 253 254 255 256 257 258 261 264 267 269 271 272 273 274 276 277 279 281 281 282 283 282
14 10 5 359 351 339 325 311 297 285 272 265 262 260 256 255 255 252 251 252 251 252 256 259 259 260 262 263 266 268 269 271 273 276 277 279 279 280 282 282 285 285 286
18 15 12 7 3 358 349 335 314 301 287 275 270 266 259 256 255 251 247 249 252 255 258 260 260 260 263 265 266 268 269 270 274 277 280 282 283 283 282 284 287 288 288
Height
5895 5896 5896 5896 5896 5897 5897 5897 5897 5897 5897 5897 5898 5898 5899 5899 5900 5900 5900 5901 5901 5901 5902 5902 5902 5902 5902 5903 5903 5903 5904 5904 5905 5906 5906 5907 5908 5908 5909 5910 5911 5912 5913
5891 5891 5891 5892 5892 5892 5893 5893 5893 5893 5894 5894 5895 5895 5896 5896 5897 5897 5898 5898 5899 5899 5900 5900 5900 5900 5901 5901 5901 5901 5902 5902 5903 5903 5904 5905 5905 5906 5907 5908 5908 5909 5910
5885 5886 5886 5887 5887 5888 5888 5888 5889 5889 5890 5890 5891 5892 5892 5893 5894 5894 5895 5895 5896 5897 5897 5897 5898 5898 5898 5898 5899 5899 5899 5900 5901 5901 5902 5902 5903 5903 5904 5905 5906 5906 5907
5879 5880 5881 5881 5882 5882 5883 5883 5884 5885 5885 5886 5887 5887 5888 5889 5890 5891 5891 5892 5893 5894 5894 5895 5895 5895 5895 5896 5896 5896 5897 5897 5898 5898 5899 5899 5900 5901 5901 5902 5902 5903 5904
5873 5874 5875 5876 5876 5877 5878 5878 5879 5880 5880 5881 5882 5883 5884 5885 5886 5887 5888 5888 5889 5890 5891 5891 5892 5892 5892 5893 5893 5893 5894 5894 5894 5895 5896 5896 5897 5897 5898 5898 5899 5899 5900
5867 5867 5868 5869 5870 5871 5872 5873 5873 5874 5875 5876 5877 5878 5879 5880 5881 5882 5883 5884 5885 5886 5887 5887 5888 5889 5889 5889 5890 5890 5890 5891 5891 5891 5892 5892 5893 5893 5894 5894 5895 5895 5896
5860 5861 5862 5862 5863 5864 5865 5866 5867 5868 5869 5870 5872 5873 5873 5874 5875 5877 5878 5879 5880 5881 5882 5883 5884 5884 5885 5885 5886 5886 5886 5887 5887 5887 5888 5888 5888 5889 5889 5890 5890 5891 5891
5853 5854 5855 5855 5856 5857 5858 5859 5860 5862 5863 5864 5865 5866 5868 5870 5870 5871 5872 5873 5874 5876 5877 5878 5879 5879 5880 5881 5881 5881 5882 5882 5883 5883 5883 5883 5884 5884 5884 5885 5885 5886 5886
5845 5846 5847 5848 5849 5850 5851 5852 5854 5855 5856 5857 5858 5860 5861 5862 5864 5865 5866 5867 5868 5870 5871 5872 5873 5874 5875 5875 5876 5876 5877 5877 5878 5878 5878 5878 5879 5879 5879 5879 5880 5880 5880
5836 5837 5839 5840 5841 5842 5844 5845 5846 5847 5849 5850 5851 5853 5854 5855 5857 5858 5859 5860 5861 5863 5864 5866 5867 5868 5869 5869 5870 5871 5871 5872 5872 5872 5873 5873 5873 5873 5874 5874 5874 5874 5875
5828 5829 5831 5833 5834 5835 5837 5838 5838 5839 5841 5842 5844 5845 5847 5848 5849 5851 5852 5854 5855 5856 5858 5859 5861 5861 5862 5863 5864 5865 5866 5866 5866 5866 5867 5867 5867 5867 5867 5868 5868 5868 5868
5819 5821 5822 5824 5826 5827 5828 5830 5831 5832 5833 5834 5836 5837 5839 5840 5842 5843 5844 5846 5848 5850 5851 5852 5854 5855 5856 5857 5858 5859 5859 5860 5860 5860 5860 5861 5861 5861 5861 5861 5862 5862 5862
5810 5812 5814 5815 5817 5818 5820 5821 5822 5824 5825 5826 5828 5829 5831 5833 5834 5835 5836 5838 5840 5842 5844 5845 5847 5848 5849 5850 5851 5852 5853 5854 5854 5854 5854 5854 5854 5855 5855 5855 5855 5855 5855
5801 5803 5805 5807 5808 5810 5811 5813 5814 5815 5817 5818 5820 5822 5823 5824 5826 5827 5828 5830 5832 5834 5836 5838 5839 5841 5842 5843 5844 5845 5846 5847 5847 5848 5848 5848 5848 5848 5848 5848 5848 5848 5848
5793 5795 5797 5799 5800 5802 5803 5804 5806 5807 5808 5810 5812 5814 5815 5816 5817 5819 5820 5822 5824 5826 5828 5830 5832 5834 5835 5836 5837 5838 5839 5840 5841 5841 5841 5842 5841 5841 5841 5841 5841 5841 5841
5786 5787 5789 5791 5792 5794 5795 5797 5798 5799 5800 5802 5803 5805 5807 5808 5809 5811 5813 5814 5816 5818 5820 5822 5825 5827 5828 5829 5831 5832 5833 5834 5834 5835 5835 5835 5835 5835 5835 5835 5834 5834 5834
5779 5781 5782 5783 5785 5786 5787 5788 5790 5791 5792 5794 5795 5797 5799 5800 5802 5803 5805 5807 5809 5811 5813 5815 5817 5819 5821 5823 5824 5825 5826 5827 5828 5828 5829 5829 5829 5828 5828 5828 5827 5827 5826
5774 5775 5776 5777 5778 5779 5780 5781 5782 5784 5785 5787 5788 5790 5791 5793 5795 5796 5798 5800 5801 5804 5806 5808 5811 5813 5815 5816 5818 5819 5820 5821 5821 5822 5822 5822 5822 5822 5821 5821 5820 5820 5819
5771 5771 5772 5772 5773 5774 5774 5775 5776 5778 5779 5781 5782 5784 5785 5786 5788 5790 5791 5793 5795 5797 5800 5802 5804 5807 5809 5811 5812 5813 5814 5815 5815 5815 5815 5816 5815 5815 5814 5814 5813 5813 5812
5769 5769 5769 5769 5769 5769 5770 5771 5772 5773 5774 5775 5777 5778 5779 5781 5782 5784 5786 5788 5790 5792 5794 5796 5799 5801 5803 5804 5806 5807 5808 5808 5808 5809 5809 5809 5809 5808 5808 5807 5807 5806 5805
5767 5767 5767 5767 5767 5766 5766 5767 5767 5768 5769 5770 5772 5773 5775 5776 5777 5779 5781 5783 5785 5787 5789 5791 5793 5795 5797 5798 5799 5800 5801 5802 5802 5802 5802 5802 5802 5801 5801 5800 5800 5799 5798
5767 5766 5765 5765 5764 5764 5764 5763 5764 5764 5765 5766 5768 5769 5770 5772 5773 5775 5776 5778 5780 5782 5784 5785 5787 5789 5791 5792 5793 5794 5795 5795 5796 5796 5796 5795 5795 5794 5794 5793 5792 5792 5791
5767 5765 5764 5763 5762 5761 5760 5760 5760 5761 5761 5762 5764 5765 5766 5768 5769 5771 5772 5774 5775 5777 5779 5780 5782 5783 5785 5786 5787 5788 5788 5789 5789 5789 5789 5789 5788 5788 5787 5786 5785 5785 5784
5767 5765 5763 5761 5760 5759 5758 5758 5757 5758 5758 5759 5760 5761 5762 5764 5765 5766 5768 5769 5771 5772 5774 5775 5777 5778 5779 5780 5781 5782 5782 5782 5782 5783 5783 5783 5782 5781 5781 5780 5779 5778 5777
5767 5764 5762 5760 5758 5757 5756 5755 5755 5755 5755 5756 5757 5758 5759 5760 5761 5762 5763 5765 5766 5768 5769 5770 5771 5773 5773 5774 5775 5776 5777 5777 5777 5777 5777 5777 5776 5776 5775 5774 5773 5772 5771
5767 5764 5762 5759 5757 5755 5754 5753 5752 5752 5753 5753 5753 5754 5755 5756 5757 5758 5759 5761 5762 5763 5765 5766 5767 5768 5769 5770 5770 5771 5771 5772 5772 5772 5772 5772 5771 5771 5770 5769 5768 5767 5766